Home   Weather   Telford   Past weeks

Flag for United Kingdom Past Weather in Telford, England, United Kingdom — Yesterday and Last 2 Weeks

Now
55 °F

Partly sunny.


Feels Like: 52 °F
Forecast: 47 / 58 °F
Wind: 12 mph from South

Location: Shawbury

Current Time: Apr 29, 2017 at 4:27:48 pm

Latest Report: Apr 29, 2017 at 3:50 pm


Visibility: N/A

Pressure: 29.86 "Hg

Humidity: 51%

Dew Point: 37 °F

Location of TelfordLocation

Past Weather in Telford — Graph

°F

Telford Temperature Yesterday

Maximum temperature yesterday: 52 °F (at 12:50 pm)
Minimum temperature yesterday: 45 °F (at 3:50 am)
Average temperature yesterday: 48 °F

High & Low Weather Summary for the Past Weeks

 TemperatureHumidityPressure
High59 °F (Apr 23, 3:50 pm)100% (Apr 17, 5:50 am)30.60 "Hg (Apr 17, 5:50 am)
Low30 °F (Apr 27, 3:50 am)40% (Apr 26, 3:50 pm)29.89 "Hg (Apr 29, 1:50 pm)
Average47 °F75%30.22 "Hg
* Reported Apr 14 2:50 pm — Apr 29 2:50 pm, Telford, Weather by CustomWeather, © 2017

Note: Actual official high and low records may vary slightly from our data, if they occured in-between our weather recording intervals... More about our weather records

Advertising

Telford Weather History for the Previous 24 Hours

Scroll right to see more
 ConditionsComfort  
Time TempWeatherWind HumidityBarometerVisibility
2:50 pm
Sat, Apr 29
54 °FPartly sunny.10 mph54%29.89 "HgN/A
1:50 pm54 °FOvercast.15 mph51%29.89 "HgN/A
12:50 pm52 °FOvercast.13 mph54%29.92 "HgN/A
11:50 am52 °FPartly sunny.10 mph62%29.92 "HgN/A
10:50 am52 °FOvercast.12 mph50%29.92 "HgN/A
9:50 am50 °FOvercast.7 mph62%29.95 "HgN/A
8:50 am46 °FOvercast.7 mph76%29.95 "HgN/A
7:50 am45 °FOvercast.5 mph81%29.95 "HgN/A
6:50 am45 °FOvercast.3 mph81%29.95 "HgN/A
5:50 am43 °FOvercast.5 mph87%29.95 "HgN/A
4:50 am43 °FOvercast.3 mph93%29.95 "HgN/A
3:50 am43 °FOvercast.5 mph87%29.95 "HgN/A
2:50 am45 °FOvercast.5 mph81%29.98 "HgN/A
1:50 am45 °FOvercast.5 mph87%29.98 "HgN/A
12:50 am45 °FPartly cloudy.6 mph87%29.98 "HgN/A
11:50 pm
Fri, Apr 28
46 °FPassing clouds.2 mph93%29.98 "HgN/A
10:50 pm46 °FPassing clouds.1 mph87%30.01 "HgN/A
9:50 pm46 °FPassing clouds.5 mph87%30.01 "HgN/A
8:50 pm48 °FPassing clouds.6 mph82%29.98 "HgN/A
7:50 pm48 °FPartly sunny.7 mph87%29.98 "HgN/A
6:50 pm50 °FBroken clouds.5 mph82%29.98 "HgN/A
5:50 pm50 °FPartly sunny.6 mph82%29.98 "HgN/A
4:50 pm52 °FPartly sunny.5 mph77%30.01 "HgN/A
Weather by CustomWeather, © 2017

See weather overviewHow to use our weather pages